When you browse on this site, cookies collect data to enhance your experience and personalize the content and advertising you see.
Visit our Privacy Policy to learn more. By continuing to use the site, you agree to this use of cookies and data.
  • In United Kingdom
  • List of Countries
  • For 7 days
  • Water Temperature
  • Weather Map
  • Weather Widgets
  • user-avatar
    Login

    Hourly Weather Cernavoda

    Today, 17 September, Tuesday

    Time Temperature Precipitation Wind Pressure Humidity
    00:00 +18°C° 0 mm 2 mps 758 mmHg 48%
    01:00 +18°C° 0 mm 2 mps 758 mmHg 48%
    02:00 +17°C° 0 mm 2 mps 758 mmHg 48%
    03:00 +17°C° 0 mm 2 mps 757 mmHg 48%
    04:00 +17°C° 0 mm 2 mps 757 mmHg 47%
    05:00 +16°C° 0 mm 2 mps 757 mmHg 47%
    06:00 +18°C° 0 mm 3 mps 757 mmHg 42%
    07:00 +20°C° 0 mm 3 mps 757 mmHg 36%
    08:00 +22°C° 0 mm 3 mps 757 mmHg 31%
    09:00 +25°C° 0 mm 3 mps 757 mmHg 28%
    10:00 +27°C° 0 mm 3 mps 757 mmHg 26%
    11:00 +30°C° 0 mm 3 mps 757 mmHg 23%
    12:00 +31°C° 0 mm 3 mps 757 mmHg 21%
    13:00 +33°C° 0 mm 3 mps 757 mmHg 19%
    14:00 +34°C° 0 mm 3 mps 756 mmHg 18%
    15:00 +33°C° 0 mm 3 mps 756 mmHg 19%
    16:00 +33°C° 0 mm 4 mps 756 mmHg 21%
    17:00 +32°C° 0 mm 4 mps 755 mmHg 22%
    18:00 +28°C° 0 mm 4 mps 756 mmHg 30%
    19:00 +26°C° 0 mm 3 mps 756 mmHg 37%
    20:00 +22°C° 0 mm 3 mps 757 mmHg 44%
    21:00 +22°C° 0 mm 3 mps 756 mmHg 47%
    22:00 +21°C° 0 mm 2 mps 756 mmHg 49%
    23:00 +21°C° 0 mm 2 mps 756 mmHg 52%

    Tomorrow, 18 September, Wednesday

    Time Temperature Precipitation Wind Pressure Humidity
    00:00 +21°C° 0 mm 2 mps 756 mmHg 54%
    01:00 +20°C° 0 mm 2 mps 756 mmHg 57%
    02:00 +20°C° 0 mm 2 mps 756 mmHg 60%
    03:00 +20°C° 0 mm 2 mps 755 mmHg 56%
    04:00 +19°C° 0 mm 2 mps 755 mmHg 53%
    05:00 +19°C° 0 mm 2 mps 755 mmHg 50%
    06:00 +21°C° 0 mm 2 mps 755 mmHg 44%
    07:00 +24°C° 0 mm 3 mps 755 mmHg 38%
    08:00 +26°C° 0 mm 3 mps 755 mmHg 32%
    09:00 +27°C° 0 mm 4 mps 755 mmHg 31%
    10:00 +29°C° 0 mm 5 mps 756 mmHg 29%
    11:00 +30°C° 0 mm 6 mps 756 mmHg 28%
    12:00 +29°C° 0 mm 7 mps 757 mmHg 29%
    13:00 +28°C° 0 mm 7 mps 757 mmHg 31%
    14:00 +27°C° 0 mm 7 mps 757 mmHg 32%
    15:00 +24°C° 0 mm 7 mps 758 mmHg 36%
    16:00 +22°C° 0 mm 7 mps 758 mmHg 41%
    17:00 +20°C° 0 mm 7 mps 759 mmHg 45%
    18:00 +19°C° 0 mm 5 mps 760 mmHg 46%
    19:00 +18°C° 0 mm 3 mps 761 mmHg 47%
    20:00 +17°C° 0 mm 2 mps 762 mmHg 48%
    21:00 +16°C° 0 mm 2 mps 762 mmHg 48%
    22:00 +16°C° 0 mm 3 mps 763 mmHg 47%
    23:00 +16°C° 0 mm 3 mps 763 mmHg 47%

    Day after tomorrow, 19 September, Thursday

    Time Temperature Precipitation Wind Pressure Humidity
    00:00 +14°C° 0 mm 4 mps 764 mmHg 46%
    01:00 +13°C° 0 mm 4 mps 764 mmHg 45%
    02:00 +13°C° 0 mm 5 mps 764 mmHg 44%
    03:00 +12°C° 0 mm 4 mps 764 mmHg 47%
    04:00 +12°C° 0 mm 3 mps 764 mmHg 49%
    05:00 +11°C° 0 mm 3 mps 764 mmHg 51%
    06:00 +12°C° 0 mm 3 mps 765 mmHg 48%
    07:00 +13°C° 0 mm 3 mps 765 mmHg 45%
    08:00 +14°C° 0 mm 3 mps 765 mmHg 43%
    09:00 +16°C° 0 mm 3 mps 765 mmHg 40%
    10:00 +17°C° 0 mm 3 mps 765 mmHg 38%
    11:00 +18°C° 0 mm 3 mps 765 mmHg 35%
    12:00 +19°C° 0 mm 3 mps 764 mmHg 34%
    13:00 +20°C° 0 mm 2 mps 764 mmHg 32%
    14:00 +21°C° 0 mm 2 mps 764 mmHg 31%
    15:00 +20°C° 0 mm 3 mps 763 mmHg 37%
    16:00 +19°C° 0 mm 3 mps 763 mmHg 44%
    17:00 +18°C° 0 mm 4 mps 763 mmHg 50%
    18:00 +16°C° 0.1 mm 3 mps 763 mmHg 61%
    19:00 +14°C° 0.1 mm 3 mps 763 mmHg 72%
    20:00 +13°C° 0.1 mm 3 mps 763 mmHg 83%
    21:00 +13°C° 0.1 mm 3 mps 763 mmHg 85%
    22:00 +12°C° 0.1 mm 3 mps 763 mmHg 87%
    23:00 +12°C° 0.1 mm 3 mps 763 mmHg 89%

    20 September, Friday

    Time Temperature Precipitation Wind Pressure Humidity
    00:00 +11°C° 0 mm 3 mps 763 mmHg 90%
    01:00 +10°C° 0 mm 3 mps 764 mmHg 92%
    02:00 +10°C° 0 mm 3 mps 764 mmHg 93%
    03:00 +9°C° 0 mm 3 mps 763 mmHg 93%
    04:00 +8°C° 0 mm 3 mps 763 mmHg 93%
    05:00 +8°C° 0 mm 3 mps 763 mmHg 93%
    06:00 +9°C° 0 mm 3 mps 763 mmHg 84%
    07:00 +10°C° 0 mm 4 mps 763 mmHg 74%
    08:00 +11°C° 0 mm 4 mps 764 mmHg 65%
    09:00 +14°C° 0 mm 5 mps 764 mmHg 54%
    10:00 +16°C° 0 mm 5 mps 764 mmHg 43%
    11:00 +19°C° 0 mm 5 mps 764 mmHg 33%
    12:00 +20°C° 0 mm 5 mps 764 mmHg 30%
    13:00 +20°C° 0 mm 6 mps 763 mmHg 27%
    14:00 +21°C° 0 mm 6 mps 763 mmHg 24%
    15:00 +20°C° 0 mm 5 mps 763 mmHg 25%
    16:00 +20°C° 0 mm 5 mps 763 mmHg 26%
    17:00 +19°C° 0 mm 5 mps 763 mmHg 27%
    18:00 +17°C° 0 mm 4 mps 764 mmHg 33%
    19:00 +14°C° 0 mm 4 mps 764 mmHg 39%
    20:00 +12°C° 0 mm 3 mps 765 mmHg 45%
    21:00 +11°C° 0 mm 3 mps 765 mmHg 47%
    22:00 +10°C° 0 mm 3 mps 766 mmHg 49%
    23:00 +9°C° 0 mm 2 mps 766 mmHg 52%

    21 September, Saturday

    Time Temperature Precipitation Wind Pressure Humidity
    00:00 +9°C° 0 mm 2 mps 766 mmHg 53%
    01:00 +8°C° 0 mm 2 mps 766 mmHg 54%
    02:00 +8°C° 0 mm 2 mps 766 mmHg 55%
    03:00 +7°C° 0 mm 2 mps 767 mmHg 56%
    04:00 +7°C° 0 mm 2 mps 767 mmHg 58%
    05:00 +7°C° 0 mm 2 mps 767 mmHg 60%
    06:00 +8°C° 0 mm 3 mps 767 mmHg 55%
    07:00 +10°C° 0 mm 4 mps 768 mmHg 50%
    08:00 +11°C° 0 mm 6 mps 768 mmHg 45%
    09:00 +13°C° 0 mm 6 mps 768 mmHg 41%
    10:00 +15°C° 0 mm 7 mps 769 mmHg 36%
    11:00 +16°C° 0 mm 8 mps 769 mmHg 32%
    12:00 +17°C° 0 mm 7 mps 769 mmHg 29%
    13:00 +17°C° 0 mm 7 mps 768 mmHg 26%
    14:00 +18°C° 0 mm 7 mps 768 mmHg 23%
    15:00 +19°C° 0 mm 6 mps 768 mmHg 23%
    16:00 +17°C° 0 mm 6 mps 768 mmHg 23%
    17:00 +17°C° 0 mm 5 mps 768 mmHg 23%
    18:00 +15°C° 0 mm 4 mps 768 mmHg 28%
    19:00 +12°C° 0 mm 3 mps 769 mmHg 32%
    20:00 +10°C° 0 mm 2 mps 769 mmHg 36%
    21:00 +10°C° 0 mm 2 mps 770 mmHg 39%
    22:00 +10°C° 0 mm 1 mps 770 mmHg 41%
    23:00 +9°C° 0 mm 1 mps 770 mmHg 44%

    22 September, Sunday

    Time Temperature Precipitation Wind Pressure Humidity
    00:00 +9°C° 0 mm 1 mps 770 mmHg 44%
    01:00 +9°C° 0 mm 1 mps 770 mmHg 45%
    02:00 +9°C° 0 mm 1 mps 770 mmHg 46%
    03:00 +8°C° 0 mm 1 mps 770 mmHg 47%
    04:00 +8°C° 0 mm 1 mps 770 mmHg 49%
    05:00 +8°C° 0 mm 1 mps 770 mmHg 50%
    06:00 +9°C° 0 mm 1 mps 770 mmHg 45%
    07:00 +11°C° 0 mm 1 mps 770 mmHg 40%
    08:00 +13°C° 0 mm 2 mps 770 mmHg 35%
    09:00 +15°C° 0 mm 2 mps 770 mmHg 31%
    10:00 +17°C° 0 mm 2 mps 770 mmHg 27%
    11:00 +19°C° 0 mm 2 mps 771 mmHg 23%
    12:00 +20°C° 0 mm 2 mps 770 mmHg 22%
    13:00 +20°C° 0 mm 2 mps 770 mmHg 21%
    14:00 +21°C° 0 mm 3 mps 769 mmHg 20%
    15:00 +21°C° 0 mm 2 mps 769 mmHg 21%
    16:00 +20°C° 0 mm 2 mps 769 mmHg 22%
    17:00 +20°C° 0 mm 2 mps 769 mmHg 23%
    18:00 +18°C° 0 mm 2 mps 769 mmHg 31%
    19:00 +14°C° 0 mm 3 mps 769 mmHg 39%
    20:00 +12°C° 0 mm 3 mps 769 mmHg 47%
    21:00 +12°C° 0 mm 2 mps 770 mmHg 49%
    22:00 +12°C° 0 mm 2 mps 770 mmHg 52%
    23:00 +10°C° 0 mm 2 mps 770 mmHg 54%
    Show more